Home   Weather   Moreno Valley   Past weeks

Flag for USA Past Weather in Moreno Valley, California, USA — Yesterday and Last 2 Weeks

Now
71 °F

Sunny.


Feels Like: 77 °F
Forecast: 48 / 84 °F
Wind: 13 mph from West

Location: Riverside / March Air Force Base

Current Time: Apr 25, 2017 at 5:51:12 pm

Latest Report: Apr 25, 2017 at 4:58 pm


Visibility: 10 mi

Pressure: 29.87 "Hg

Humidity: 34%

Dew Point: 41 °F

Location of Moreno ValleyLocation

Past Weather in Moreno Valley — Graph

°F

Moreno Valley Temperature Yesterday

Maximum temperature yesterday: 71 °F (at 2:58 pm)
Minimum temperature yesterday: 53 °F (at 12:58 am)
Average temperature yesterday: 60 °F

High & Low Weather Summary for the Past Weeks

 TemperatureHumidityPressure
High92 °F (Apr 22, 2:58 pm)100% (Apr 12, 10:58 pm)30.13 "Hg (Apr 12, 10:58 pm)
Low38 °F (Apr 15, 4:58 am)8% (Apr 21, 11:58 am)29.78 "Hg (Apr 23, 3:58 pm)
Average61 °F62%29.96 "Hg
* Reported Apr 10 3:58 pm — Apr 25 3:58 pm, Moreno Valley, Weather by CustomWeather, © 2017

Note: Actual official high and low records may vary slightly from our data, if they occured in-between our weather recording intervals... More about our weather records

Advertising

Moreno Valley Weather History for the Previous 24 Hours

Scroll right to see more
 ConditionsComfort  
Time TempWeatherWind HumidityBarometerVisibility
3:58 pm
Tue, Apr 25
70 °FSunny.6 mph33%29.86 "Hg10 mi
2:58 pm71 °FScattered clouds.12 mph38%29.89 "Hg10 mi
1:58 pm70 °FScattered clouds.9 mph37%29.87 "Hg10 mi
12:58 pm69 °FBroken clouds.9 mph43%29.91 "Hg10 mi
11:58 am69 °FPassing clouds.3 mph42%29.91 "Hg10 mi
10:58 am65 °FPartly sunny.7 mph53%29.91 "Hg10 mi
9:58 am62 °FScattered clouds.No wind60%29.90 "Hg10 mi
8:58 am59 °FPassing clouds.8 mph76%29.88 "Hg10 mi
7:58 am55 °FScattered clouds.7 mph94%29.87 "Hg10 mi
7:28 am55 °FPartly sunny.7 mph94%29.88 "Hg10 mi
7:03 am54 °FScattered clouds.6 mph100%29.86 "Hg10 mi
6:26 am52 °FPartly sunny.5 mph100%29.86 "Hg10 mi
6:21 am50 °FPartly sunny.5 mph100%29.86 "Hg10 mi
5:58 am52 °FPassing clouds.5 mph100%29.82 "Hg10 mi
5:13 am54 °FPassing clouds.No wind94%29.85 "Hg10 mi
5:03 am52 °FPassing clouds.3 mph100%29.84 "Hg10 mi
4:34 am50 °FPassing clouds.No wind100%29.85 "Hg10 mi
3:58 am50 °FClear.5 mph97%29.82 "Hg10 mi
3:23 am54 °FPassing clouds.No wind94%29.84 "Hg10 mi
2:58 am55 °FMostly cloudy.No wind88%29.83 "Hg10 mi
2:18 am54 °FPartly cloudy.3 mph94%29.86 "Hg10 mi
1:58 am56 °FPassing clouds.7 mph86%29.84 "Hg10 mi
1:38 am57 °FOvercast.7 mph77%29.86 "Hg10 mi
12:58 am56 °FMostly cloudy.6 mph83%29.84 "Hg10 mi
11:58 pm
Mon, Apr 24
57 °FOvercast.6 mph88%29.84 "Hg10 mi
11:28 pm57 °FOvercast.8 mph88%29.87 "Hg10 mi
11:13 pm57 °FPassing clouds.7 mph88%29.86 "Hg10 mi
10:58 pm56 °FPassing clouds.No wind82%29.84 "Hg10 mi
9:58 pm58 °FPassing clouds.3 mph79%29.85 "Hg10 mi
8:58 pm60 °FPassing clouds.7 mph74%29.85 "Hg10 mi
7:58 pm61 °FClear.10 mph70%29.84 "Hg10 mi
6:58 pm64 °FSunny.12 mph64%29.83 "Hg10 mi
5:58 pm67 °FSunny.15 mph58%29.83 "Hg10 mi
Weather by CustomWeather, © 2017

See weather overviewHow to use our weather pages